Weather in Odessa

United States     31°51′38″N   102°26′26″W
temp.,
°C
wind,
m/s
gust,
m/s
humid.,
%
clouds,
%
prec.,
mm/h
press.,
hPa
HPBL,
m
18 may, tue
tue1801:00+22s611750 1.3 1006252
04:00+18sse915787 0.8 1006511
07:00+17s58921 0.8 1006197
10:00+19se898197 1.0 1009565
13:00+25sse54470 1.0 10071215
16:00+29sw561883 0.0 10044046
19:00+29s58130 0.0 10033259
22:00+25s441872 0.0 100436
19 may, wed
wed1901:00+20nne69335 0.0 1006123
04:00+18ene33483 0.0 100624
07:00+18ssw594913 0.0 1007116
10:00+22wnw564784 0.0 1009593
13:00+28wnw582274 0.0 10072417
16:00+29w582046 0.0 10053481
19:00+29wnw1419100 0.0 10043103
22:00+24sse6935100 0.0 1006238
20 may, thu
thu2001:00+20sse59660 0.0 1008286
04:00+18se59770 0.0 1008202
07:00+16se610850 0.0 1010258
10:00+21sse56580 0.0 1011451
13:00+28sse66340 0.0 1010996
16:00+32se65230 0.0 10082093
19:00+31se76250 0.0 10071938
22:00+26sse9143915 0.0 1010539
21 may, fri
fri2101:00+22se915571 0.0 1012540
04:00+20se814660 0.0 1013521
07:00+18se613851 0.0 1015460
10:00+22se810610 0.0 1015841
13:00+27se88430 0.0 10141405
16:00+30se98373 0.0 10111967
19:00+29se1111390 0.0 10111907
22:00+24se1115544 0.0 10131110
22 may, sat
sat2201:00+21se11166895 0.0 1015812
04:00+20se81478100 0.0 1016888
07:00+20se81282100 0.1 1017954
10:00+22se101267100 0.1 1018880
13:00+27se111147100 0.1 10161454
16:00+29se111137100 0.0 10131851
19:00+28se10113698 0.0 10132011
22:00+25sse101449100 0.0 1015822